Location: Go�ngahuizen
(53.0821°N, 5.8849°E)
Time: 07:52:07
(UTC+00:00)

STARLINK-1224 - Visible Passes

Search period start: 11 August 2020 00:00
Search period end: 21 August 2020 00:00
Orbit: 548 x 551 km, 53.0° (Epoch: 11 August)

Date Brightness Start Highest point End Pass type
(mag) Time Alt. Az. Time Alt. Az. Time Alt. Az.
11 Aug 3.6 20:47:35 10° W 20:51:46 90° ENE 20:55:33 12° E visible
11 Aug 3.8 22:27:12 10° W 22:31:10 53° SSW 22:31:10 53° SSW visible
12 Aug 3.6 20:42:05 10° W 20:46:15 88° S 20:49:48 14° E visible
12 Aug 4.0 22:21:42 10° W 22:25:25 44° SW 22:25:25 44° SW visible
13 Aug 3.6 20:36:35 10° W 20:40:45 83° S 20:44:05 15° ESE visible
13 Aug 4.4 22:16:14 10° W 22:19:43 37° SW 22:19:43 37° SW visible
14 Aug 3.6 20:31:04 10° W 20:35:14 78° SSW 20:38:25 17° ESE visible
14 Aug 4.7 22:10:47 10° W 22:14:02 31° SW 22:14:02 31° SW visible
15 Aug 3.6 20:25:34 10° W 20:29:42 71° SSW 20:32:47 17° ESE visible
15 Aug 5.0 22:05:23 10° W 22:08:24 26° SW 22:08:24 26° SW visible
16 Aug 3.7 20:20:04 10° W 20:24:11 63° SSW 20:27:11 18° ESE visible
16 Aug 5.3 22:00:03 10° W 22:02:49 21° SW 22:02:49 21° SW visible
17 Aug 3.9 20:14:34 10° W 20:18:38 54° SSW 20:21:38 17° SE visible
17 Aug 5.5 21:54:48 10° W 21:57:15 17° SW 21:57:15 17° SW visible
18 Aug 4.2 20:09:05 10° W 20:13:04 46° SSW 20:16:06 16° SE visible
18 Aug 5.8 21:49:43 10° WSW 21:51:44 14° SW 21:51:44 14° SW visible
19 Aug 4.5 20:03:37 10° W 20:07:30 39° SSW 20:10:38 14° SE visible
19 Aug 6.1 21:45:07 10° WSW 21:46:12 11° SW 21:46:16 11° SW visible
20 Aug 4.8 19:58:11 10° W 20:01:55 33° SSW 20:05:13 12° SSE visible
